Waarnemingen

Advertentie
Mijn weer
Emden, Duitsland (10200): temperatuur & dauwpunt: 19.02.2018 06:00:00 - 25.02.2018 06:00:00 (CET)Emden, Duitsland (10200): temperatuur 5cm & temperatuur -5cm: 19.02.2018 06:00:00 - 25.02.2018 06:00:00 (CET)Emden, Duitsland (10200): temperatuur -20cm & temperatuur -100cm: 19.02.2018 06:00:00 - 25.02.2018 06:00:00 (CET)Emden, Duitsland (10200): windsnelheid & windstoten: 19.02.2018 06:00:00 - 25.02.2018 06:00:00 (CET)Emden, Duitsland (10200): windrichting: 19.02.2018 06:00:00 - 25.02.2018 06:00:00 (CET)Emden, Duitsland (10200): luchtdruk: 19.02.2018 06:00:00 - 25.02.2018 06:00:00 (CET)Emden, Duitsland (10200): zicht: 19.02.2018 06:00:00 - 25.02.2018 06:00:00 (CET)Emden, Duitsland (10200): Zonneschijnduur: 19.02.2018 06:00:00 - 25.02.2018 06:00:00 (CET)Emden, Duitsland (10200): neerslag: 19.02.2018 06:00:00 - 25.02.2018 06:00:00 (CET)
Datum & Tijd tt [°C] td [°C] tt 5cm [°C] tt -5cm [°C] tt -20cm [°C] tt -100cm [°C] ff [km/u] ff [kn] fx [km/u] fx [kn] dd ppp [hPa] vv [km] sd [min] rr [mm]
25.02.2018 06:00:00 -5,8 -9,8 -7,1 -2,7 0,5 5,3 15 8 22 12 O 1033,7 48 0 0,0
25.02.2018 05:00:00 -5,7 -9,5 -7,0 -2,5 0,5 5,3 15 8 19 10 ONO 1033,8 47 0 0,0
25.02.2018 04:00:00 -5,4 -9,3 -7,0 -2,3 0,5 5,3 13 7 22 12 ONO 1033,6 49 0 0,0
25.02.2018 03:00:00 -4,8 -8,9 -6,1 -2,0 0,6 5,3 14 8 21 11 O 1033,3 51 0 0,0
25.02.2018 02:00:00 -4,3 -8,6 -5,6 -1,8 0,6 5,3 16 9 25 13 O 1033,4 48 0 0,0
25.02.2018 01:00:00 -3,7 -8,3 -4,9 -1,5 0,6 5,3 18 10 30 16 O 1033,1 54 0 0,0
25.02.2018 00:00:00 -3,2 -8,3 -4,4 -1,1 0,6 5,3 17 9 24 13 O 1033,1 54 0 0,0
24.02.2018 23:00:00 -3,3 -7,7 -4,8 -0,7 0,6 5,3 13 7 22 12 ONO 1032,9 43 0 0,0
24.02.2018 22:00:00 -2,9 -7,7 -4,1 -0,2 0,6 5,3 17 9 23 12 ONO 1032,5 42 0 0,0
24.02.2018 21:00:00 -2,1 -8,0 -3,4 -0,1 0,6 5,3 16 9 24 13 O 1032,2 49 0 0,0
24.02.2018 20:00:00 -1,8 -7,5 -3,3 -0,1 0,6 5,3 16 9 31 17 ONO 1031,8 49 0 0,0
24.02.2018 19:00:00 -0,9 -7,5 -2,2 -0,1 0,6 5,3 17 9 32 18 ONO 1031,3 43 0 0,0
24.02.2018 18:00:00 0,2 -7,4 -0,9 -0,1 0,6 5,3 25 13 38 20 ONO 1030,8 59 38 0,0
24.02.2018 17:00:00 1,4 -7,8 1,5 -0,1 0,6 5,4 28 15 45 24 O 1030,5 10 60 0,0
24.02.2018 16:00:00 2,0 -6,4 2,7 -0,1 0,6 5,4 30 16 46 25 ONO 1030,3 12 56 0,0
24.02.2018 15:00:00 2,2 -5,1 3,3 -0,2 0,6 5,4 24 13 45 25 O 1030,5 12 44 0,0
24.02.2018 14:00:00 2,9 -4,1 4,6 -0,2 0,6 5,4 33 18 49 26 O 1030,6 4,6 47 0,0
24.02.2018 13:00:00 2,2 -4,2 3,7 -0,2 0,6 5,4 35 19 48 26 O 1030,5 6 39 0,0
24.02.2018 12:00:00 1,3 -4,0 2,1 -0,3 0,6 5,4 36 19 53 29 O 1030,8 13 0 0,0
24.02.2018 11:00:00 0,7 -4,2 1,2 -0,4 0,6 5,4 36 19 54 29 O 1030,8 35 1 0,0
24.02.2018 10:00:00 -0,2 -4,3 0,0 -0,6 0,6 5,4 30 16 43 23 O 1030,5 21 2 0,0
24.02.2018 09:00:00 -0,8 -4,8 -0,8 -1,1 0,6 5,4 27 15 42 23 O 1030,1 17 0 0,0
24.02.2018 08:00:00 -3,0 -6,7 -3,9 -1,6 0,7 5,4 19 11 27 15 O 1029,7 21 0 0,0
24.02.2018 07:00:00 -4,0 -8,2 -5,1 -1,6 0,7 5,4 16 9 24 13 O 1029,2 26 0 0,0
24.02.2018 06:00:00 -4,1 -8,3 -5,2 -1,4 0,7 5,4 14 7 26 14 O 1029,1 23 0 0,0
24.02.2018 05:00:00 -3,8 -8,3 -4,9 -1,3 0,7 5,4 18 10 28 15 O 1028,5 23 0 0,0
24.02.2018 04:00:00 -3,7 -8,6 -4,8 -1,2 0,7 5,4 16 9 29 16 O 1028,2 23 0 0,0
24.02.2018 03:00:00 -3,6 -8,2 -4,8 -1,0 0,7 5,4 17 9 29 15 O 1028,2 20 0 0,0
24.02.2018 02:00:00 -3,3 -8,2 -4,4 -0,9 0,7 5,4 19 10 28 15 O 1028,1 20 0 0,0
24.02.2018 01:00:00 -3,6 -8,0 -4,8 -0,7 0,7 5,4 13 7 24 13 O 1027,9 18 0 0,0
24.02.2018 00:00:00 -3,4 -7,2 -4,7 -0,3 0,7 5,4 14 8 22 12 ONO 1027,7 14 0 0,0
23.02.2018 23:00:00 -3,1 -6,6 -4,5 -0,1 0,7 5,4 16 8 21 12 ONO 1027,4 12 0 0,0
23.02.2018 22:00:00 -2,9 -6,3 -4,3 -0,1 0,7 5,4 16 9 22 12 ONO 1027,2 11 0 0,0
23.02.2018 21:00:00 -2,3 -6,3 -3,7 -0,1 0,7 5,4 12 7 18 10 ONO 1026,9 12 0 0,0
23.02.2018 20:00:00 -2,0 -6,1 -3,6 -0,1 0,7 5,4 12 7 19 10 O 1026,5 13 0 0,0
23.02.2018 19:00:00 -1,1 -6,1 -2,5 -0,1 0,7 5,4 15 8 25 13 ONO 1026,3 16 0 0,0
23.02.2018 18:00:00 -0,4 -5,6 -1,8 -0,1 0,7 5,4 16 9 29 16 ONO 1025,5 19 29 0,0
23.02.2018 17:00:00 0,9 -5,4 1,3 -0,1 0,7 5,4 20 11 31 17 ONO 1025,7 35 60 0,0
23.02.2018 16:00:00 1,5 -5,2 2,6 -0,1 0,7 5,4 21 11 34 18 ONO 1025,8 41 60 0,0
23.02.2018 15:00:00 1,6 -5,6 3,2 -0,1 0,7 5,4 23 12 37 20 ONO 1025,9 14 48 0,0
23.02.2018 14:00:00 2,3 -6,1 4,6 -0,1 0,7 5,4 22 12 33 18 ONO 1026,2 23 60 0,0
23.02.2018 13:00:00 1,8 -4,8 3,1 -0,1 0,8 5,4 21 12 30 16 O 1026,6 11 60 0,0
23.02.2018 12:00:00 1,3 -3,9 2,1 -0,1 0,8 5,4 18 10 27 15 O 1027,1 11 24 0,0
23.02.2018 11:00:00 0,2 -2,5 0,4 -0,2 0,8 5,4 16 9 23 13 O 1027,0 9 12 0,0
23.02.2018 10:00:00 -0,2 -2,2 -0,1 -0,2 0,8 5,4 18 10 23 12 O 1027,1 8 38 0,0
23.02.2018 09:00:00 -1,4 -2,8 -1,7 -0,4 0,8 5,4 14 7 17 9 ONO 1026,9 8 1 0,0
23.02.2018 08:00:00 -1,7 -3,1 -3,0 -0,5 0,8 5,4 11 6 18 10 ONO 1026,5 7 0 0,0
23.02.2018 07:00:00 -1,3 -3,0 -2,2 -0,4 0,8 5,4 13 7 19 10 NO 1026,0 10 0 0,0
23.02.2018 06:00:00 -2,1 -3,6 -2,9 -0,4 0,8 5,4 10 5 16 9 NO 1025,8 8 0 0,0
23.02.2018 05:00:00 -2,2 -3,6 -3,6 -0,4 0,8 5,4 11 6 16 9 NO 1025,6 8 0 0,0
23.02.2018 04:00:00 -2,1 -3,5 -3,4 -0,2 0,8 5,4 11 6 15 8 NO 1025,7 5 0 0,0
23.02.2018 03:00:00 -2,6 -3,7 -4,2 -0,1 0,8 5,4 9 5 13 7 ONO 1026,2 3,8 0 0,0
23.02.2018 02:00:00 -2,5 -3,3 -4,8 -0,1 0,8 5,4 8 5 11 6 NO 1026,5 2,9 0 0,0
23.02.2018 01:00:00 -2,5 -3,5 -4,7 -0,1 0,8 5,4 7 4 12 6 ONO 1026,7 3,4 0 0,0
23.02.2018 00:00:00 -2,3 -2,9 -5,7 -0,1 0,8 5,4 6 4 13 7 NO 1026,7 2,9 0 0,0
22.02.2018 23:00:00 -1,4 -2,8 -2,7 -0,1 0,8 5,4 10 5 13 7 NO 1026,6 4,1 0 0,0
22.02.2018 22:00:00 -1,6 -3,1 -3,0 -0,1 0,8 5,4 7 4 11 6 NNO 1026,6 4,7 0 0,0
22.02.2018 21:00:00 -0,4 -2,1 -3,5 -0,1 0,8 5,4 6 3 8 4 NNO 1026,4 6 0 0,0
22.02.2018 20:00:00 0,3 -1,1 -0,2 -0,1 0,8 5,4 6 3 8 4 O 1026,5 6 0 0,0
22.02.2018 19:00:00 0,7 -1,8 0,2 -0,1 0,8 5,5 5 3 7 4 ONO 1026,5 9 0 0,0
22.02.2018 18:00:00 0,8 -1,6 0,1 -0,1 0,8 5,5 4 2 6 3 O 1026,3 10 0 0,0
22.02.2018 17:00:00 1,3 -1,9 1,3 -0,1 0,8 5,5 4 2 8 5 OZO 1026,3 11 0 0,0
22.02.2018 16:00:00 1,7 -1,6 2,1 -0,1 0,8 5,5 5 3 11 6 ZZO 1026,4 11 0 0,0
22.02.2018 15:00:00 1,5 -1,7 2,0 -0,1 0,8 5,5 9 5 13 7 ZZO 1026,9 9 0 0,0
22.02.2018 14:00:00 1,8 -2,1 2,6 -0,1 0,8 5,5 6 4 11 6 OZO 1027,4 9 0 0,0
22.02.2018 13:00:00 1,4 -1,1 1,7 -0,1 0,9 5,5 4 2 10 6 ONO 1027,8 6 0 0,0
22.02.2018 12:00:00 1,3 -1,2 1,1 -0,1 0,9 5,5 6 3 7 4 ONO 1027,8 6 0 0,0
22.02.2018 11:00:00 0,6 -1,3 0,8 -0,1 0,9 5,5 4 2 6 4 NO 1027,7 4,9 0 0,0
22.02.2018 10:00:00 0,0 -1,1 0,0 -0,2 0,9 5,5 3 2 8 4 NO 1027,8 4,1 0 0,0
22.02.2018 09:00:00 -2,1 -2,8 -1,7 -0,3 0,9 5,5 5 3 8 4 N 1027,7 4,2 2 0,0
22.02.2018 08:00:00 -3,3 -4,1 -6,1 -0,3 0,9 5,5 3 2 7 4 ONO 1027,5 3,2 0 0,0
22.02.2018 07:00:00 -3,9 -4,5 -4,8 -0,3 0,9 5,5 7 4 8 4 N 1027,5 3,4 0 0,0
22.02.2018 06:00:00 -4,2 -5,0 -6,8 -0,3 0,9 5,5 6 3 10 6 N 1027,5 3,3 0 0,0
22.02.2018 05:00:00 -4,3 -5,0 -7,7 -0,2 0,9 5,5 7 4 11 6 N 1027,5 3,8 0 0,0
22.02.2018 04:00:00 -4,4 -5,3 -8,6 -0,1 0,9 5,5 4 2 7 4 NNO 1027,7 4,2 0 0,0
22.02.2018 03:00:00 -4,8 -5,3 -8,1 0,0 0,9 5,5 5 3 7 4 ONO 1027,7 3,8 0 0,0
22.02.2018 02:00:00 -4,3 -4,7 -8,1 0,0 0,9 5,5 4 2 5 3 NO 1027,9 3,3 0 0,0
22.02.2018 01:00:00 -3,9 -4,4 -8,1 0,0 0,9 5,5 5 3 8 4 ONO 1028,1 4,8 0 0,0
22.02.2018 00:00:00 -3,4 -4,5 -7,1 0,0 0,9 5,5 6 3 10 5 NO 1028,2 6 0 0,0
21.02.2018 23:00:00 -3,0 -4,6 -6,6 0,0 0,9 5,5 7 4 10 5 NO 1028,1 6 0 0,0
21.02.2018 22:00:00 -2,6 -4,7 -5,2 0,0 0,9 5,5 7 4 11 6 NNO 1028,1 6 0 0,0
21.02.2018 21:00:00 -1,4 -4,1 -3,7 0,0 0,9 5,5 9 5 12 7 NO 1027,9 7 0 0,0
21.02.2018 20:00:00 -0,7 -3,8 -2,5 0,0 0,9 5,5 10 5 15 8 NO 1027,5 7 0 0,0
21.02.2018 19:00:00 0,2 -3,7 -1,6 0,0 0,9 5,5 10 6 14 8 NO 1027,1 8 0 0,0
21.02.2018 18:00:00 0,5 -4,0 -2,3 0,0 0,9 5,5 8 4 14 8 NO 1026,7 11 0 0,0
21.02.2018 17:00:00 2,4 -3,9 1,8 0,0 1,0 5,5 12 6 18 10 NO 1026,5 11 58 0,0
21.02.2018 16:00:00 2,4 -3,2 2,6 0,0 1,0 5,5 10 6 21 11 NNO 1026,6 10 32 0,0
21.02.2018 15:00:00 3,5 -4,5 4,4 0,0 1,0 5,5 10 6 18 10 ONO 1027,0 10 35 0,0
21.02.2018 14:00:00 3,4 -4,5 3,9 0,0 1,0 5,5 11 6 18 10 ONO 1027,4 9 2 0,0
21.02.2018 13:00:00 3,3 -3,4 4,5 0,0 1,0 5,5 11 6 16 9 ONO 1027,8 10 35 0,0
21.02.2018 12:00:00 2,3 -2,8 3,8 0,0 1,0 5,5 7 4 11 6 NO 1027,8 10 28 0,0
21.02.2018 11:00:00 1,0 -2,4 2,3 -0,1 1,0 5,5 8 4 11 6 ONO 1027,6 6 59 0,0
21.02.2018 10:00:00 -0,2 -2,4 0,4 -0,1 1,0 5,5 5 3 8 5 ONO 1027,6 4,2 60 0,0
21.02.2018 09:00:00 -3,1 -4,5 -2,8 -0,1 1,0 5,5 6 3 7 4 NNO 1027,1 3,0 30 0,0
21.02.2018 08:00:00 -4,3 -5,0 -7,6 0,0 1,0 5,5 5 3 7 4 N 1026,9 3,2 0 0,0
21.02.2018 07:00:00 -4,7 -5,3 -7,4 0,0 1,1 5,5 6 3 7 4 N 1026,8 3,0 0 0,0
21.02.2018 06:00:00 -4,0 -4,6 -7,5 0,0 1,1 5,5 5 3 9 5 N 1026,7 3,3 0 0,0
21.02.2018 05:00:00 -3,5 -4,2 -6,7 0,0 1,1 5,5 8 4 9 5 N 1026,8 3,7 0 0,0
21.02.2018 04:00:00 -3,4 -4,3 -6,4 0,1 1,1 5,5 4 2 12 6 N 1026,6 3,1 0 0,0
21.02.2018 03:00:00 -2,5 -3,8 -4,3 0,1 1,1 5,5 9 5 13 7 ONO 1026,3 4,0 0 0,0
21.02.2018 02:00:00 -2,6 -4,4 -4,9 0,1 1,1 5,5 8 4 12 7 N 1026,4 5 0 0,0
21.02.2018 01:00:00 -2,2 -4,4 -4,7 0,1 1,2 5,5 8 4 9 5 NNO 1025,9 4,8 0 0,0
21.02.2018 00:00:00 -1,7 -4,1 -4,1 0,1 1,2 5,6 8 4 14 8 NO 1025,8 4,7 0 0,0
20.02.2018 23:00:00 -1,8 -4,1 -3,6 0,2 1,2 5,6 11 6 13 7 NNO 1025,5 4,2 0 0,0
20.02.2018 22:00:00 -1,3 -3,1 -3,0 0,2 1,2 5,6 12 6 14 8 NNO 1024,7 3,4 0 0,0
20.02.2018 21:00:00 -0,3 -2,5 -2,4 0,2 1,2 5,6 11 6 15 8 N 1024,2 3,9 0 0,0
20.02.2018 20:00:00 -0,1 -2,3 -2,4 0,3 1,2 5,6 11 6 13 7 N 1023,5 4,1 0 0,0
20.02.2018 19:00:00 1,0 -2,0 -1,4 0,3 1,2 5,6 9 5 19 10 NO 1022,7 5 0 0,0
20.02.2018 18:00:00 2,5 -1,8 0,9 0,6 1,1 5,6 13 7 19 10 ONO 1021,9 7 14 0,0
20.02.2018 17:00:00 4,3 -1,5 3,9 0,9 1,0 5,6 12 7 18 10 ONO 1021,2 8 53 0,0
20.02.2018 16:00:00 5,4 -1,5 5,9 1,1 0,9 5,6 14 7 18 10 NO 1020,8 9 53 0,0
20.02.2018 15:00:00 5,8 -1,6 7,3 0,7 0,9 5,6 11 6 17 9 O 1020,8 8 60 0,0
20.02.2018 14:00:00 5,4 -1,3 7,3 0,1 0,9 5,6 10 5 17 9 ONO 1020,9 11 59 0,0
20.02.2018 13:00:00 4,9 -1,0 6,5 0,0 0,9 5,6 9 5 13 7 O 1020,9 6 60 0,0
20.02.2018 12:00:00 4,8 -0,2 5,5 0,0 0,9 5,6 5 3 9 5 ZO 1020,9 4,9 56 0,0
20.02.2018 11:00:00 2,5 -0,2 3,0 0,0 0,9 5,6 6 3 15 8 OZO 1020,4 3,8 11 0,0
20.02.2018 10:00:00 0,0 -0,8 0,1 0,0 0,9 5,6 4 2 5 3 O 1020,1 1,4 0 0,0
20.02.2018 09:00:00 -1,4 -2,0 -1,7 0,0 0,9 5,6 0 0 5 3 N 1020,0 1,4 0 0,0
20.02.2018 08:00:00 -2,1 -2,8 -3,1 0,0 0,9 5,6 2 1 5 3 NNO 1019,8 1,7 0 0,0
20.02.2018 07:00:00 -2,3 -2,5 -2,9 0,0 0,9 5,6 4 2 5 3 O 1019,5 1,4 0 0,0
20.02.2018 06:00:00 -2,2 -2,6 -3,7 0,0 0,9 5,6 3 2 7 4 NNW 1019,6 1,6 0 0,0
20.02.2018 05:00:00 -2,8 -3,3 -3,6 0,0 0,9 5,6 5 3 6 3 NNW 1019,5 1,2 0 0,0
20.02.2018 04:00:00 -3,1 -3,2 -6,5 0,0 0,9 5,6 5 3 6 4 NNO 1019,4 1,3 0 0,0
20.02.2018 03:00:00 -3,4 -3,6 -6,3 0,0 0,9 5,6 5 3 5 3 OZO 1019,2 0,1 0 0,0
20.02.2018 02:00:00 -2,6 -2,7 -6,1 0,0 0,9 5,6 3 1 8 4 NO 1019,2 0,4 0 0,0
20.02.2018 01:00:00 -2,6 -3,1 -5,7 0,0 1,0 5,6 3 1 5 3 NNO 1019,4 0,7 0 0,0
20.02.2018 00:00:00 -1,9 -2,2 -3,9 0,0 1,0 5,6 3 2 6 3 NNO 1019,1 1,4 0 0,0
19.02.2018 23:00:00 -2,2 -2,6 -3,9 0,0 1,0 5,6 1 1 3 2 NNW 1019,0 1,9 0 0,0
19.02.2018 22:00:00 -2,0 -2,0 -5,8 0,0 1,0 5,6 3 1 4 2 ONO 1019,3 1,2 0 0,0
19.02.2018 21:00:00 -1,5 -2,1 -4,5 0,0 1,0 5,6 4 2 7 4 N 1019,3 2,4 0 0,0
19.02.2018 20:00:00 -0,9 -1,7 -4,8 0,0 1,0 5,6 2 1 7 4 NO 1019,3 3,1 0 0,0
19.02.2018 19:00:00 0,5 -0,8 -3,4 0,0 1,0 5,6 6 3 8 4 OZO 1019,0 3,7 0 0,0
19.02.2018 18:00:00 1,7 -0,4 -2,2 0,0 0,9 5,6 7 4 8 4 O 1018,8 4,5 0 0,0
19.02.2018 17:00:00 3,6 -0,2 2,7 0,0 0,9 5,6 6 3 13 7 ZO 1018,8 6 0 0,0
19.02.2018 16:00:00 3,9 -0,6 4,2 0,0 0,9 5,6 9 5 16 9 Z 1018,9 7 0 0,0
19.02.2018 15:00:00 3,9 -0,3 4,5 0,0 0,8 5,6 10 5 19 10 Z 1019,1 7 0 0,0
19.02.2018 14:00:00 3,0 -0,6 3,4 0,0 0,8 5,7 11 6 17 9 Z 1019,2 6 0 0,0
19.02.2018 13:00:00 2,3 -0,6 2,5 0,0 0,8 5,7 10 6 16 9 Z 1019,7 5 0 0,0
19.02.2018 12:00:00 2,2 -1,0 2,7 0,0 0,8 5,7 9 5 19 10 Z 1019,9 5 0 0,0
19.02.2018 11:00:00 1,7 -1,2 1,8 0,0 0,8 5,7 8 4 18 10 Z 1020,0 5 0 0,0
19.02.2018 10:00:00 1,4 -1,5 1,4 0,0 0,8 5,7 10 5 17 9 Z 1020,1 6 0 0,0
19.02.2018 09:00:00 0,9 -1,8 0,7 0,0 0,8 5,7 10 6 18 10 Z 1020,2 6 0 0,0
19.02.2018 08:00:00 0,4 -1,8 0,2 0,0 0,8 5,7 10 6 15 8 Z 1020,3 4,8 0 0,0
19.02.2018 07:00:00 0,2 -1,8 -0,3 0,0 0,8 5,7 9 5 15 8 ZZO 1020,3 4,4 0 0,0
19.02.2018 06:00:00 0,9 -1,6 0,0 -0,1 0,8 5,7 9 5 17 9 Z 1020,1 4,8 0 0,0

tt = temperatuur
td = dauwpunt
tt 5cm = temperatuur 5cm
tt -5cm = temperatuur -5cm
tt -20cm = temperatuur -20cm
tt -100cm = temperatuur -100cm
ff = windsnelheid
fx = windstoten
dd = windrichting
ppp = luchtdruk
vv = zicht
sd = Zonneschijnduur
rr = neerslag

Weerstations in de omgeving